Theta_e
293 293 294 295 296 297 299 300 302 304 305 307 309 310 311 311 313 313 313 313 314 314 315 317 317 318 318 318 319 319 320 320 319 319 319 319 319 319 319 320 320 320 321 321 321 320 320 319 318 317 318 317
292 292 292 293 293 294 295 296 297 299 300 302 304 306 308 309 309 310 311 312 313 312 312 313 315 316 316 317 317 318 318 319 319 319 319 319 319 319 319 320 320 320 320 320 320 320 320 318 318 317 318 317
292 292 292 292 292 293 293 293 294 295 296 297 299 301 304 305 306 307 307 308 310 310 311 312 312 313 314 314 314 315 317 317 317 318 318 318 318 319 319 319 319 320 319 319 320 319 319 317 317 318 317 317
291 291 291 291 292 292 292 292 293 293 293 294 295 296 299 301 302 303 304 304 305 306 307 309 310 311 312 311 310 312 314 315 316 316 317 318 318 318 318 319 319 319 318 319 319 319 318 316 317 318 317 317
290 290 290 290 290 291 291 292 293 292 293 293 293 294 294 296 298 300 301 302 302 302 303 304 305 306 308 308 307 308 310 312 312 312 315 316 316 317 317 318 318 317 317 318 318 318 317 316 316 317 317 317
289 290 290 290 290 290 290 290 291 292 292 293 293 293 292 293 294 296 297 299 300 300 300 301 302 302 302 304 305 304 304 307 308 309 312 314 315 316 316 317 317 317 317 317 317 318 317 316 315 316 317 317
289 289 290 290 290 290 289 290 290 290 291 291 292 292 292 292 292 293 293 295 296 297 298 299 300 301 300 301 302 301 300 301 302 303 307 311 313 314 315 316 316 316 316 316 317 318 318 316 315 315 316 316
289 289 289 289 289 290 290 290 289 289 289 290 291 291 292 292 291 291 292 292 293 293 294 295 297 300 300 300 300 300 299 299 298 298 299 304 309 311 313 315 315 315 316 316 316 317 318 316 315 315 316 316
289 289 289 289 289 289 290 290 290 289 289 289 290 290 291 291 291 290 291 291 292 292 292 292 293 295 298 300 300 300 300 299 298 298 296 297 301 305 309 312 314 315 315 315 315 317 317 315 315 315 316 316
288 289 289 289 289 289 289 289 289 289 289 289 289 290 290 290 290 290 290 290 290 291 291 292 292 292 293 296 298 299 300 300 299 299 298 296 296 298 302 306 310 313 314 315 315 317 317 315 315 314 315 316
288 288 288 288 289 289 289 289 289 289 289 289 288 289 289 290 290 289 289 289 289 290 290 291 291 291 292 292 294 295 297 299 299 298 299 298 296 296 297 299 303 307 312 314 314 316 316 315 314 313 314 315
288 288 288 288 288 288 288 289 289 288 288 288 288 288 289 289 289 288 288 289 288 289 289 290 290 290 291 291 292 292 293 295 297 297 297 298 298 297 296 296 297 299 305 312 313 314 315 315 313 312 313 314
288 288 287 287 287 287 288 288 288 288 287 287 287 288 289 289 288 287 287 287 287 288 288 289 289 288 289 290 290 291 292 293 294 295 295 296 297 298 296 295 295 295 298 304 309 313 314 314 314 313 312 313
287 287 287 287 287 286 287 287 287 287 287 286 286 287 287 287 287 287 286 286 287 287 288 288 288 288 288 288 289 289 290 291 293 294 295 295 295 296 296 295 295 295 295 296 301 307 311 313 313 313 313 312
285 285 286 286 286 286 286 286 286 286 286 286 286 286 286 286 286 286 286 286 286 286 287 287 287 287 287 287 288 288 288 289 291 292 293 295 295 294 295 294 294 294 294 294 295 299 304 308 311 312 312 313
283 283 283 284 284 284 285 285 285 285 285 285 285 285 285 285 285 285 285 286 286 286 287 286 286 286 286 286 287 288 288 289 289 290 291 293 294 294 294 295 294 293 293 295 294 294 297 300 304 307 310 312
282 282 282 282 282 282 283 283 283 284 284 284 284 284 284 284 284 284 285 285 285 285 285 285 285 286 286 286 286 287 289 289 289 288 288 291 292 294 294 295 295 293 292 294 294 294 294 295 297 301 305 309
282 282 282 282 281 281 281 281 282 282 282 283 283 283 283 283 283 283 284 284 284 284 284 284 284 285 286 286 286 287 288 288 288 287 288 288 289 290 292 294 295 294 293 292 293 295 295 294 294 295 299 303
282 282 282 281 281 281 281 281 281 281 281 281 281 282 282 282 282 282 282 282 282 282 283 283 283 284 285 286 286 286 286 286 287 287 287 287 288 289 290 291 292 294 294 293 292 293 293 294 295 294 295 297
282 282 282 281 281 281 281 281 281 281 281 281 281 280 281 281 281 281 281 281 281 281 281 282 282 282 284 285 286 285 285 286 286 287 287 287 289 290 290 290 290 290 292 293 293 292 292 293 294 295 294 294
282 282 282 282 281 281 281 281 281 281 281 281 281 280 280 280 280 280 280 280 280 280 280 280 281 281 281 283 285 286 285 285 286 287 288 287 288 290 291 291 291 291 290 291 292 292 291 292 293 295 295 294
282 282 282 282 282 282 281 281 281 281 281 281 281 280 280 280 280 280 280 280 280 280 280 280 280 280 280 281 284 285 285 285 286 287 287 287 287 288 290 291 291 291 291 290 290 291 291 291 292 294 295 295
282 282 282 282 282 282 281 281 281 281 281 281 281 280 280 280 280 280 280 279 280 280 280 280 280 280 280 280 282 284 285 285 285 286 286 287 287 287 288 289 289 290 290 290 290 290 290 290 291 292 293 294
281 281 281 282 282 282 281 281 281 281 281 280 280 280 280 280 280 279 279 279 280 279 279 280 280 280 280 280 281 282 283 284 285 285 286 286 287 288 288 289 289 290 290 290 290 289 288 289 290 290 291 292
281 281 281 281 281 281 281 281 281 281 280 280 280 280 280 280 279 279 279 279 279 279 279 279 280 279 279 279 279 279 280 281 283 284 285 286 286 287 288 288 289 290 290 290 290 289 289 288 289 290 290 291
280 280 280 281 281 281 281 281 280 280 280 280 280 280 280 279 279 279 279 279 279 279 278 278 279 278 278 278 278 278 278 278 280 281 283 285 286 286 287 287 288 288 289 290 290 290 290 289 289 289 290 291
280 280 280 280 280 281 281 280 280 280 280 280 279 279 279 279 279 279 279 279 278 278 278 278 278 278 277 277 277 277 277 278 278 279 281 283 284 285 286 286 286 287 288 289 290 290 290 290 290 291 290 291
278 279 279 279 279 279 280 280 279 279 279 279 279 279 279 279 279 278 278 278 278 278 277 277 277 277 277 277 277 277 277 278 279 279 279 281 283 284 285 286 286 287 288 288 289 290 290 290 291 291 291 291
277 277 277 278 278 278 278 279 278 278 278 278 278 278 278 278 278 278 277 277 277 277 277 277 277 277 277 276 276 277 277 278 279 279 279 280 282 284 285 285 286 287 287 288 289 289 290 290 291 291 291 292
275 275 275 275 276 276 277 277 277 277 277 277 277 277 277 277 277 276 276 276 276 276 276 276 276 276 276 276 277 277 278 278 279 279 279 280 281 283 284 285 286 286 287 288 289 289 289 290 290 291 291 291
274 274 274 274 274 275 275 276 276 276 276 276 276 276 276 276 276 275 275 275 275 276 276 276 276 276 276 276 277 277 277 278 278 279 279 279 280 282 283 284 285 286 286 287 288 288 289 289 290 290 291 290
Wind_Speed
14 13 12 11 10 9 8 8 7 8 9 10 10 10 11 11 10 12 10 7 5 4 6 10 13 15 14 15 16 14 13 9 9 15 19 19 19 18 18 16 15 15 15 16 15 12 10 9 7 6 5 4
14 15 14 13 13 12 10 9 8 8 8 8 8 9 10 10 10 11 12 13 14 11 7 5 6 10 14 15 14 15 16 15 12 12 16 19 20 19 18 17 15 15 14 14 15 13 12 11 8 7 6 4
14 15 15 14 13 12 11 10 9 8 8 8 7 7 8 9 9 9 10 11 13 15 14 12 10 9 9 11 10 11 13 13 13 14 15 16 17 17 17 17 16 15 14 14 14 14 12 11 10 10 8 5
16 16 17 16 14 12 13 11 9 8 8 8 7 7 7 8 9 8 8 9 10 11 12 13 14 15 12 7 5 7 9 9 9 12 15 14 13 14 15 17 17 16 15 14 14 15 13 11 11 11 9 7
19 19 19 19 17 15 16 13 10 10 9 8 7 7 6 6 7 8 9 9 9 10 9 10 10 11 12 10 6 3 5 7 6 5 11 14 13 13 14 15 16 15 15 14 14 15 14 12 12 12 11 9
22 21 21 21 20 18 19 18 14 14 12 10 9 8 8 7 6 7 8 9 10 10 11 10 9 8 8 9 8 4 2 3 3 1 6 10 12 12 12 14 15 15 14 15 15 17 16 13 13 12 12 11
24 24 23 23 23 21 21 21 19 19 17 15 14 12 11 10 9 8 7 8 9 10 11 12 11 10 8 8 8 6 2 1 2 2 1 7 10 11 12 13 15 16 15 16 16 18 18 14 13 13 13 13
27 27 26 26 25 24 23 23 22 22 21 19 18 17 15 14 13 12 9 8 7 7 8 10 11 11 11 10 9 8 5 2 2 3 4 1 6 8 11 13 14 16 15 15 15 18 18 14 14 14 13 13
29 29 28 28 28 27 26 25 24 24 23 21 20 21 20 18 17 17 15 12 10 8 7 8 9 10 10 11 12 12 9 7 5 3 6 7 3 4 8 10 13 16 15 13 13 16 17 14 14 15 14 14
30 30 30 30 29 29 28 27 26 25 24 21 19 19 22 22 20 20 18 17 16 14 12 9 8 9 9 10 12 13 14 12 9 8 6 8 9 5 5 6 9 14 16 14 13 16 18 16 15 16 16 15
31 32 32 32 31 31 30 29 28 27 26 22 18 17 20 23 23 23 22 20 20 19 18 15 12 11 10 9 9 11 13 15 13 12 11 9 8 8 8 8 7 9 13 14 15 17 19 18 16 17 17 17
33 34 34 33 33 32 31 30 29 28 26 23 20 16 17 22 24 25 24 23 22 21 21 20 18 16 13 11 10 11 11 13 14 13 14 13 12 9 9 11 11 9 9 13 15 15 18 18 17 17 18 18
35 36 36 35 34 33 32 31 30 28 26 24 20 14 15 21 24 24 24 24 23 23 22 22 22 20 18 15 13 13 11 12 12 13 14 15 16 14 12 14 14 13 11 9 12 14 17 19 17 17 18 18
38 38 38 37 35 33 32 31 29 28 26 23 20 16 17 21 23 24 23 23 23 23 23 23 24 22 20 19 17 15 12 13 12 13 14 14 16 17 15 16 17 15 14 12 11 12 16 19 19 18 18 19
38 38 38 37 35 33 32 31 29 27 25 22 20 19 20 20 21 22 21 21 22 23 24 24 23 22 21 20 18 16 14 13 13 13 14 15 16 17 17 17 18 19 17 14 13 13 15 17 19 19 19 19
34 35 35 35 34 32 31 30 29 27 24 22 21 21 21 20 20 20 20 21 22 23 24 24 23 23 21 19 17 16 15 14 14 13 13 14 17 18 19 19 19 19 19 18 15 14 15 16 17 18 19 20
28 30 30 30 29 29 28 28 28 28 26 23 21 20 20 19 19 20 21 22 23 24 24 24 22 22 21 18 15 14 14 16 17 15 13 12 16 18 19 21 22 20 19 18 19 18 16 16 17 18 19 20
24 25 24 25 25 24 24 23 24 26 26 24 23 21 19 19 19 20 22 23 23 23 23 22 21 20 21 18 15 15 16 19 19 16 13 13 13 15 18 21 23 23 22 18 19 21 21 19 18 19 20 20
24 22 21 22 22 22 21 20 20 21 21 22 23 22 21 20 20 21 22 22 23 23 22 22 20 19 18 18 19 19 18 19 19 17 14 13 13 13 16 19 20 22 24 22 19 20 21 22 21 20 20 22
24 21 21 21 20 20 18 17 19 19 18 20 21 21 21 20 21 23 22 22 23 24 23 22 21 19 17 17 19 21 20 19 19 18 15 12 11 13 15 18 20 21 22 24 22 20 20 22 24 23 21 22
23 23 25 22 20 20 17 17 18 17 17 19 20 21 21 20 20 22 24 25 24 23 23 22 22 21 19 16 17 19 20 19 18 16 16 15 12 12 14 16 19 20 21 23 24 23 21 21 24 26 25 23
23 25 25 21 21 22 19 19 19 18 17 17 19 20 21 20 20 21 24 25 23 20 20 20 20 20 19 17 16 18 19 19 18 17 18 19 16 14 15 17 17 18 19 22 24 25 24 21 22 25 28 28
22 23 23 21 23 23 20 20 20 18 17 18 19 20 19 18 20 24 23 20 18 18 19 18 18 18 18 17 17 19 20 18 18 18 18 18 18 17 17 19 20 20 21 22 24 26 26 25 23 23 26 29
23 22 22 23 24 23 21 21 20 19 19 19 19 20 20 21 22 23 22 19 18 20 20 18 17 16 16 17 19 21 22 21 18 17 18 18 18 18 19 19 20 21 21 22 25 26 26 27 27 25 24 26
25 24 23 24 25 23 22 22 21 21 20 20 20 20 21 22 23 22 21 21 21 22 21 20 18 19 19 20 21 22 24 24 22 18 18 19 20 20 22 22 20 19 18 20 23 25 26 26 26 26 25 24
22 22 22 23 23 22 22 22 22 22 21 21 21 21 21 22 22 22 22 22 22 23 23 23 24 25 26 26 25 26 26 25 25 24 22 21 22 22 23 25 23 19 18 20 22 22 24 25 25 25 25 24
21 21 22 24 22 20 20 20 20 20 20 20 21 22 23 23 23 23 23 23 23 24 24 25 28 29 30 29 28 28 27 26 26 26 25 23 23 23 25 26 24 21 19 21 22 20 21 22 21 20 21 23
24 24 23 24 23 21 19 17 17 18 19 20 21 23 24 23 24 24 24 25 25 25 26 27 28 29 31 31 29 28 27 26 25 25 25 24 23 24 26 27 25 21 19 21 21 20 21 20 17 17 17 18
24 24 24 24 24 23 22 20 20 21 21 22 24 25 24 24 24 25 26 27 28 28 29 29 28 28 30 29 27 25 24 25 25 25 24 24 25 25 26 27 26 23 21 22 23 23 22 18 15 17 17 14
25 26 28 28 26 25 24 24 23 23 24 25 26 26 27 27 27 27 29 28 28 28 27 27 27 26 27 27 24 22 23 24 25 26 25 25 26 27 27 26 27 27 24 24 25 26 27 23 17 15 14 13
28 28 28 27 25 25 24 24 24 24 26 26 27 27 27 28 28 27 28 27 27 27 26 26 26 26 27 27 25 24 25 26 25 24 25 25 26 27 27 27 29 29 27 27 28 27 27 28 26 21 18 14
Wind_Direction
48 43 42 39 34 25 12 360 338 318 311 310 306 308 301 287 279 276 271 264 248 193 185 194 186 179 165 164 173 157 146 165 213 229 233 233 230 229 228 227 228 230 232 230 231 232 225 232 255 264 256 274
43 38 37 38 37 36 26 15 6 352 338 328 314 311 308 301 290 283 280 274 272 274 270 248 215 191 173 160 159 156 156 153 155 189 217 227 228 228 225 225 228 229 229 228 230 224 218 241 253 240 233 243
35 31 27 27 30 34 30 27 25 16 5 354 339 327 313 308 301 292 293 284 276 274 271 270 271 256 211 179 168 163 167 168 165 177 195 214 225 226 223 223 226 226 226 223 223 219 220 237 237 228 222 219
29 28 22 21 21 22 21 21 24 23 20 13 358 346 328 314 311 301 300 299 295 288 279 274 272 273 263 239 211 185 178 177 176 186 187 195 213 221 221 221 224 225 227 222 219 217 215 222 223 227 223 213
23 24 21 19 17 15 13 10 10 10 10 15 12 10 0 336 323 312 307 306 308 308 304 295 279 275 272 269 266 222 201 187 176 196 189 187 196 208 215 218 221 223 225 222 219 218 213 217 219 224 225 216
16 16 16 15 14 14 12 8 5 3 358 357 358 5 10 6 356 337 324 316 313 312 310 307 295 289 284 271 266 268 273 197 168 206 203 196 191 194 205 215 220 217 218 219 218 220 214 213 214 220 224 219
9 8 8 8 8 9 10 9 7 3 358 352 348 346 353 359 2 357 348 337 329 323 315 310 299 292 292 285 275 271 294 14 89 56 238 216 199 194 198 205 218 218 216 215 216 219 213 209 208 213 220 221
3 2 1 1 1 2 2 4 5 4 1 358 353 344 339 343 350 349 346 343 338 335 328 320 311 299 290 288 290 285 284 320 15 44 30 276 213 202 201 199 208 216 219 216 215 217 213 210 205 205 213 220
358 357 356 356 356 355 354 355 357 359 359 2 0 349 337 332 339 343 339 334 330 328 331 330 326 319 304 292 291 291 286 293 304 330 18 11 331 225 211 203 198 206 215 217 212 214 214 210 206 204 206 212
354 352 351 351 352 351 350 350 350 350 352 359 1 349 338 330 333 339 336 334 330 325 323 324 326 327 323 310 299 296 290 290 295 297 320 356 355 335 277 236 208 200 204 211 205 205 213 209 207 206 200 205
349 348 348 347 346 346 345 345 346 345 346 352 354 349 338 328 330 335 335 333 331 327 323 321 321 322 323 323 316 309 301 295 296 300 296 306 334 342 323 295 266 221 197 199 201 205 210 204 202 202 197 201
343 343 343 342 341 341 340 340 341 342 344 344 346 349 335 323 327 331 331 331 331 328 324 322 322 324 320 318 321 318 312 304 297 302 302 296 299 314 323 311 301 284 229 196 194 202 206 204 201 197 196 200
336 335 335 335 336 336 335 335 335 337 340 340 340 341 323 317 323 325 326 328 327 326 323 322 323 326 323 317 318 318 314 310 298 295 302 303 299 301 308 305 301 297 280 237 205 193 196 205 204 195 196 200
331 330 329 329 330 331 330 329 331 332 334 335 334 327 316 316 318 319 323 324 323 321 318 319 321 324 324 320 322 323 317 309 299 292 293 297 300 301 303 303 298 292 289 279 250 215 199 202 204 204 203 200
332 329 328 326 326 326 326 325 325 327 329 328 325 319 315 315 316 316 318 318 316 315 314 316 319 320 321 322 323 323 321 309 297 291 287 285 291 295 295 298 298 291 287 286 275 252 229 215 210 213 214 208
331 329 327 326 325 324 324 322 321 322 323 322 319 316 313 311 311 310 309 308 306 307 309 313 315 316 316 320 320 319 317 305 294 295 291 278 277 283 285 287 291 290 284 281 281 270 253 239 227 219 217 215
326 324 323 323 325 325 324 323 321 321 321 318 314 312 310 307 304 302 300 299 300 301 304 307 311 312 313 315 315 310 301 292 293 300 299 285 274 273 275 277 283 288 285 277 274 275 270 257 243 231 222 217
318 315 313 315 320 322 323 323 321 322 322 318 315 312 309 306 302 297 296 296 298 300 301 302 303 305 310 311 302 292 289 290 295 298 294 292 287 280 274 271 273 279 284 282 272 269 271 267 255 242 233 225
312 309 305 307 313 316 317 317 316 319 320 317 317 316 313 313 307 299 297 299 301 301 300 300 298 298 302 305 298 292 291 292 294 294 290 288 291 291 285 277 273 271 275 280 278 271 266 265 262 253 242 233
308 306 303 301 306 310 310 313 313 313 314 311 313 318 319 317 312 307 303 303 305 305 302 301 299 294 292 295 301 300 295 291 292 296 292 282 276 279 283 283 281 278 274 273 274 275 270 263 261 259 252 243
305 304 306 302 306 312 308 309 311 308 310 310 311 317 319 316 312 310 309 309 310 309 305 304 302 299 293 288 294 300 298 291 289 288 284 276 265 260 268 275 279 283 283 278 275 274 271 264 260 259 259 252
310 310 311 306 306 310 306 307 308 304 303 303 306 312 314 316 314 312 314 316 313 309 307 307 305 304 300 289 282 286 289 287 282 277 275 278 275 262 256 258 263 270 276 280 281 278 274 269 260 256 257 257
317 313 310 305 302 301 299 302 305 303 301 299 303 307 307 307 308 309 315 318 313 309 311 311 309 306 300 288 277 274 275 277 281 280 277 279 280 273 263 258 257 259 263 266 270 274 276 276 270 259 254 255
321 317 312 308 301 294 292 294 293 294 296 298 300 300 298 299 303 309 316 318 312 310 315 314 307 301 294 285 278 274 272 270 273 278 279 276 274 271 266 259 256 258 260 262 264 267 271 273 273 270 261 254
319 318 314 313 307 297 292 291 289 291 293 294 294 292 294 301 306 310 312 311 306 306 311 308 298 292 293 294 290 284 278 272 267 266 269 270 270 267 262 257 252 252 259 265 267 269 272 273 273 273 270 261
316 312 306 309 311 300 292 291 289 292 294 292 289 289 294 297 299 301 300 297 296 298 301 298 293 293 297 300 298 293 287 279 271 264 262 263 265 266 265 261 255 250 253 258 263 271 278 279 276 273 271 268
313 307 299 300 307 300 289 291 292 290 290 290 289 291 293 291 288 289 289 289 292 295 295 292 290 292 296 298 296 295 291 285 279 271 264 260 262 266 267 266 261 254 249 252 257 265 270 272 276 278 272 268
313 306 298 294 301 299 288 285 286 284 283 286 292 294 292 290 287 284 283 283 285 287 289 289 290 292 294 295 297 296 291 284 279 274 267 260 261 265 266 265 263 255 244 245 250 252 257 259 265 270 268 268
312 308 303 300 303 305 298 290 289 292 293 293 294 293 290 289 286 284 282 282 283 285 287 287 289 292 292 294 298 297 289 283 277 273 268 260 257 259 261 263 261 255 241 235 239 242 247 249 251 253 253 259
311 308 308 308 308 309 307 302 300 300 299 296 293 290 288 287 286 286 286 286 287 288 289 288 285 286 291 291 290 287 280 278 277 275 269 261 256 254 256 259 259 255 246 235 231 235 240 240 240 247 250 254
316 314 313 313 309 307 306 303 301 298 296 294 291 289 288 288 288 289 288 287 287 285 284 285 281 281 286 284 277 274 273 272 271 272 269 261 256 255 255 256 257 254 250 243 233 230 237 240 237 242 252 257